"SCET";"TARGET";"ELECTRON_DENSITY";"ERROR_FLAG";"ELECTRON_DENSITY_ERROR";"FREQ_FCE";"MEASURED_VALUE";"MEASURED_ITEM";"FREQ_PLASMA";"FREQ_UPPER_HYBRID";"FREQ_R_EQUALS_ZERO";"FREQ_L_EQUALS_ZERO";"ORBIT_NUMBER";"SATURN_RADIUS";"SATURN_IAU_LONGITUDE";"SATURN_SLS4_S_LONGITUDE";"SATURN_SLS4_N_LONGITUDE";"SATURN_SLS5_S_LONGITUDE";"SATURN_SLS5_N_LONGITUDE";"SATURN_LOCAL_TIME";"SATURN_KRONOGRAPHIC_LATITUDE";"SATURN_MAGNETIC_LATITUDE";"SATURN_L";"SATURN_L_OFFSET";"SATURN_SOLAR_EQUATORIAL_X";"SATURN_SOLAR_EQUATORIAL_Y";"SATURN_SOLAR_EQUATORIAL_Z";"SATURN_ALTITUDE";"ENCELADUS_ENCOUNTER_NUMBER";"ENCELADUS_RADIUS";"ENCELADUS_COROTATIONAL_X";"ENCELADUS_COROTATIONAL_Y";"ENCELADUS_COROTATIONAL_Z";"ENCELADUS_TRUE_ANOMALY";"ENCELADUS_PERIAPSIS_TIME";"JUPITER_RADIUS";"JUPITER_SYSTEMIII_LONGITUDE";"JUPITER_MAGNETIC_LATITUDE";"JUPITER_MAGNETIC_LOCAL_TIME";"JUPITER_L";"IO_PHASE";"EARTH_RADIUS";"EARTH_MAGNETIC_LATITUDE";"EARTH_LOCAL_TIME";"EARTH_L"
"[UTC]";"[0=Saturn, 1=Enceladus, 2=Jupiter, 3=Earth]";"[cm-3]";"[0=automated, 1=manual]";"[normalized density error]";"[Hz]";"[Hz]";"[0=upper hybrid frequency, 1=plasma frequency cutoff]";"[Hz]";"[Hz]";"[Hz]";"[Hz}";"[0, A, B, C, 3, 4, ... , 292, 293]";"[Rs where 1Rs=60268km]";"[degrees]";"[degrees]";"[degrees]";"[degrees]";"[degrees]";"[hours]";"[degrees]";"[degrees where offset=2293km north]";"[Rs where 1Rs=60268km]";"[Rs where 1Rs=60268km and offset=2293km north]";"[Rs where 1Rs=60268km]";"[Rs where 1Rs=60268km]";"[Rs where 1Rs=60268km]";"[km where ellipsoid a,b=60268km and c=54364km]";"[E0, E1, E2, ... , E21, E22]";"[Renc where 1Renc=252.1km]";"[Renc where 1Renc=252.1km]";"[Renc where 1Renc=252.1km]";"[Renc where 1Renc=252.1km]";"[degrees]";"[UTC]";"[Rj where 1Rj=71492km]";"[degrees]";"[degrees using JRM09 model]";"[hours using JRM09 model]";"[Rj where 1Rj=71492km]";"[degrees]";"[Re where 1Re=6378.1366km]";"[degrees]";"[hours]";"[Re where 1Re=6378.1366km]"
2005-10-30T00:00:58.725Z;0;6.9190e+01;0;     0.066;  5580.316;  74904.164; 0;  74696.008;  74904.164;  77538.258;  71957.945; 17;   4.653;  50.982; 173.496;; 181.174;  91.778;  19.015;   0.198;  -0.270;   4.653;   4.648;  -1.222;   4.490;   0.016;;;;;;;;;;;;;;;;;;
2005-10-30T00:01:06.725Z;0;6.9310e+01;0;     0.068;  5576.312;  74967.016; 0;  74759.336;  74967.016;  77599.469;  72023.156; 17;   4.653;  51.031; 173.545;; 181.223;  91.828;  19.016;   0.198;  -0.270;   4.653;   4.648;  -1.224;   4.489;   0.016;;;;;;;;;;;;;;;;;;
2005-10-30T00:01:14.725Z;0;6.9240e+01;0;     0.068;  5576.312;  74932.867; 0;  74725.094;  74932.867;  77565.242;  71988.930; 17;   4.653;  51.081; 173.593;; 181.272;  91.877;  19.018;   0.198;  -0.270;   4.653;   4.649;  -1.226;   4.489;   0.016;;;;;;;;;;;;;;;;;;
2005-10-30T00:01:22.725Z;0;6.9130e+01;0;     0.065;  5576.312;  74872.430; 0;  74664.484;  74872.430;  77504.680;  71928.367; 17;   4.654;  51.130; 173.642;; 181.321;  91.927;  19.020;   0.198;  -0.270;   4.654;   4.649;  -1.228;   4.489;   0.016;;;;;;;;;;;;;;;;;;
2005-10-30T00:01:30.725Z;0;6.9110e+01;0;     0.069;  5576.312;  74861.758; 0;  74653.781;  74861.758;  77493.984;  71917.680; 17;   4.654;  51.179; 173.690;; 181.370;  91.976;  19.022;   0.199;  -0.270;   4.654;   4.649;  -1.230;   4.488;   0.016;;;;;;;;;;;;;;;;;;
2005-10-30T00:01:38.725Z;0;6.9460e+01;0;     0.066;  5576.312;  75048.641; 0;  74841.188;  75048.641;  77681.258;  72104.945; 17;   4.654;  51.229; 173.738;; 181.419;  92.026;  19.023;   0.199;  -0.270;   4.654;   4.649;  -1.232;   4.488;   0.016;;;;;;;;;;;;;;;;;;
2005-10-30T00:01:46.725Z;0;6.9330e+01;0;     0.072;  5576.312;  74977.000; 0;  74769.344;  74977.000;  77609.469;  72033.156; 17;   4.654;  51.278; 173.787;; 181.468;  92.075;  19.025;   0.199;  -0.269;   4.654;   4.649;  -1.234;   4.488;   0.016;;;;;;;;;;;;;;;;;;
2005-10-30T00:01:54.725Z;0;6.9480e+01;0;     0.069;  5576.312;  75058.461; 0;  74851.031;  75058.461;  77691.102;  72114.789; 17;   4.654;  51.328; 173.835;; 181.517;  92.125;  19.027;   0.199;  -0.269;   4.654;   4.650;  -1.236;   4.487;   0.016;;;;;;;;;;;;;;;;;;
2005-10-30T00:02:02.724Z;0;6.9750e+01;0;     0.073;  5570.656;  75204.234; 0;  74997.633;  75204.234;  77834.664;  72264.008; 17;   4.655;  51.377; 173.884;; 181.566;  92.174;  19.028;   0.199;  -0.269;   4.655;   4.650;  -1.238;   4.487;   0.016;;;;;;;;;;;;;;;;;;
2005-10-30T00:02:10.724Z;0;6.9370e+01;0;     0.069;  5570.656;  74998.055; 0;  74790.883;  74998.055;  77628.055;  72057.398; 17;   4.655;  51.426; 173.932;; 181.615;  92.223;  19.030;   0.199;  -0.269;   4.655;   4.650;  -1.240;   4.487;   0.016;;;;;;;;;;;;;;;;;;
2005-10-30T00:02:18.724Z;0;6.9430e+01;0;     0.073;  5570.656;  75033.023; 0;  74825.945;  75033.023;  77663.102;  72092.445; 17;   4.655;  51.476; 173.981;; 181.664;  92.273;  19.032;   0.199;  -0.269;   4.655;   4.650;  -1.242;   4.486;   0.016;;;;;;;;;;;;;;;;;;
2005-10-30T00:02:26.724Z;0;6.9150e+01;0;     0.073;  5570.656;  74882.367; 0;  74674.875;  74882.367;  77512.125;  71941.477; 17;   4.655;  51.525; 174.029;; 181.713;  92.322;  19.034;   0.200;  -0.269;   4.655;   4.651;  -1.245;   4.486;   0.016;;;;;;;;;;;;;;;;;;
2005-10-30T00:02:34.724Z;0;6.9250e+01;0;     0.069;  5570.656;  74937.711; 0;  74730.367;  74937.711;  77567.586;  71996.930; 17;   4.656;  51.575; 174.077;; 181.762;  92.372;  19.035;   0.200;  -0.268;   4.656;   4.651;  -1.247;   4.486;   0.016;;;;;;;;;;;;;;;;;;
2005-10-30T00:02:42.724Z;0;6.9670e+01;0;     0.072;  5570.656;  75162.617; 0;  74955.898;  75162.617;  77792.961;  72222.305; 17;   4.656;  51.624; 174.126;; 181.811;  92.421;  19.037;   0.200;  -0.268;   4.656;   4.651;  -1.249;   4.485;   0.016;;;;;;;;;;;;;;;;;;
2005-10-30T00:02:50.724Z;0;6.9520e+01;0;     0.067;  5570.656;  75082.047; 0;  74875.109;  75082.047;  77712.227;  72141.570; 17;   4.656;  51.673; 174.174;; 181.860;  92.470;  19.039;   0.200;  -0.268;   4.656;   4.651;  -1.251;   4.485;   0.016;;;;;;;;;;;;;;;;;;
2005-10-30T00:02:58.724Z;0;6.9020e+01;0;     0.067;  5570.656;  74813.078; 0;  74605.391;  74813.078;  77442.695;  71872.039; 17;   4.656;  51.723; 174.223;; 181.909;  92.520;  19.040;   0.200;  -0.268;   4.656;   4.651;  -1.253;   4.485;   0.016;;;;;;;;;;;;;;;;;;
2005-10-30T00:03:06.724Z;0;6.9420e+01;0;     0.067;  5564.580;  75026.562; 0;  74819.922;  75026.562;  77653.922;  72089.344; 17;   4.656;  51.772; 174.271;; 181.958;  92.569;  19.042;   0.200;  -0.268;   4.656;   4.652;  -1.255;   4.484;   0.016;;;;;;;;;;;;;;;;;;
2005-10-30T00:03:14.724Z;0;6.9170e+01;0;     0.071;  5564.580;  74893.953; 0;  74686.945;  74893.953;  77521.039;  71956.461; 17;   4.657;  51.822; 174.320;; 182.007;  92.618;  19.044;   0.201;  -0.268;   4.657;   4.652;  -1.257;   4.484;   0.016;;;;;;;;;;;;;;;;;;
2005-10-30T00:03:22.724Z;0;6.9420e+01;0;     0.071;  5564.580;  75027.383; 0;  74820.742;  75027.383;  77654.750;  72090.164; 17;   4.657;  51.871; 174.368;; 182.056;  92.667;  19.045;   0.201;  -0.267;   4.657;   4.652;  -1.259;   4.484;   0.016;;;;;;;;;;;;;;;;;;
2005-10-30T00:03:30.724Z;0;6.9410e+01;0;     0.068;  5564.580;  75020.758; 0;  74814.102;  75020.758;  77648.109;  72083.531; 17;   4.657;  51.920; 174.417;; 182.105;  92.717;  19.047;   0.201;  -0.267;   4.657;   4.652;  -1.261;   4.483;   0.016;;;;;;;;;;;;;;;;;;
2005-10-30T00:03:38.724Z;0;6.9380e+01;0;     0.070;  5564.580;  75006.461; 0;  74799.766;  75006.461;  77633.781;  72069.203; 17;   4.657;  51.970; 174.465;; 182.154;  92.766;  19.049;   0.201;  -0.267;   4.657;   4.652;  -1.263;   4.483;   0.016;;;;;;;;;;;;;;;;;;
2005-10-30T00:03:46.724Z;0;6.9550e+01;0;     0.071;  5564.580;  75094.703; 0;  74888.250;  75094.703;  77722.203;  72157.625; 17;   4.657;  52.019; 174.513;; 182.203;  92.815;  19.051;   0.201;  -0.267;   4.658;   4.653;  -1.265;   4.482;   0.016;;;;;;;;;;;;;;;;;;
2005-10-30T00:03:54.724Z;0;6.9660e+01;0;     0.070;  5564.580;  75156.492; 0;  74950.211;  75156.492;  77784.125;  72219.539; 17;   4.658;  52.069; 174.562;; 182.252;  92.864;  19.052;   0.201;  -0.267;   4.658;   4.653;  -1.267;   4.482;   0.016;;;;;;;;;;;;;;;;;;
2005-10-30T00:04:02.724Z;0;6.9400e+01;0;     0.068;  5557.468;  75014.664; 0;  74808.516;  75014.664;  77638.844;  72081.375; 17;   4.658;  52.118; 174.610;; 182.301;  92.913;  19.054;   0.201;  -0.267;   4.658;   4.653;  -1.269;   4.482;   0.016;;;;;;;;;;;;;;;;;;
2005-10-30T00:04:10.724Z;0;6.9280e+01;0;     0.068;  5557.468;  74951.281; 0;  74744.961;  74951.281;  77575.328;  72017.859; 17;   4.658;  52.168; 174.659;; 182.350;  92.963;  19.056;   0.202;  -0.266;   4.658;   4.653;  -1.271;   4.481;   0.016;;;;;;;;;;;;;;;;;;
2005-10-30T00:04:18.724Z;0;6.9680e+01;0;     0.071;  5557.468;  75164.586; 0;  74958.852;  75164.586;  77789.070;  72231.602; 17;   4.658;  52.217; 174.707;; 182.399;  93.012;  19.057;   0.202;  -0.266;   4.658;   4.654;  -1.273;   4.481;   0.016;;;;;;;;;;;;;;;;;;
2005-10-30T00:04:26.724Z;0;6.9400e+01;0;     0.066;  5557.468;  75013.062; 0;  74806.914;  75013.062;  77637.234;  72079.766; 17;   4.659;  52.266; 174.756;; 182.448;  93.061;  19.059;   0.202;  -0.266;   4.659;   4.654;  -1.276;   4.481;   0.016;;;;;;;;;;;;;;;;;;
2005-10-30T00:04:34.724Z;0;6.9330e+01;0;     0.073;  5557.468;  74975.594; 0;  74769.344;  74975.594;  77599.688;  72042.227; 17;   4.659;  52.316; 174.804;; 182.497;  93.110;  19.061;   0.202;  -0.266;   4.659;   4.654;  -1.278;   4.480;   0.016;;;;;;;;;;;;;;;;;;
2005-10-30T00:04:42.723Z;0;6.9250e+01;0;     0.071;  5557.468;  74936.414; 0;  74730.055;  74936.414;  77560.430;  72002.961; 17;   4.659;  52.365; 174.853;; 182.547;  93.159;  19.063;   0.202;  -0.266;   4.659;   4.654;  -1.280;   4.480;   0.016;;;;;;;;;;;;;;;;;;
2005-10-30T00:04:50.723Z;0;6.9460e+01;0;     0.071;  5557.468;  75050.047; 0;  74844.000;  75050.047;  77674.297;  72116.828; 17;   4.659;  52.415; 174.901;; 182.596;  93.208;  19.064;   0.202;  -0.265;   4.659;   4.654;  -1.282;   4.480;   0.016;;;;;;;;;;;;;;;;;;
2005-10-30T00:04:58.723Z;0;6.9270e+01;0;     0.066;  5557.468;  74943.688; 0;  74737.344;  74943.688;  77567.719;  72010.250; 17;   4.659;  52.464; 174.950;; 182.645;  93.257;  19.066;   0.202;  -0.265;   4.660;   4.655;  -1.284;   4.479;   0.016;;;;;;;;;;;;;;;;;;
2005-10-30T00:05:06.723Z;0;6.9170e+01;0;     0.070;  5550.916;  74893.344; 0;  74687.352;  74893.344;  77514.359;  71963.445; 17;   4.660;  52.514; 174.998;; 182.694;  93.306;  19.068;   0.203;  -0.265;   4.660;   4.655;  -1.286;   4.479;   0.016;;;;;;;;;;;;;;;;;;
2005-10-30T00:05:14.723Z;0;6.9040e+01;0;     0.070;  5550.916;  74822.883; 0;  74616.695;  74822.883;  77443.750;  71892.836; 17;   4.660;  52.563; 175.047;; 182.743;  93.355;  19.069;   0.203;  -0.265;   4.660;   4.655;  -1.288;   4.479;   0.016;;;;;;;;;;;;;;;;;;
2005-10-30T00:05:22.723Z;0;6.9480e+01;0;     0.069;  5550.916;  75060.086; 0;  74854.555;  75060.086;  77681.445;  72130.531; 17;   4.660;  52.613; 175.095;; 182.792;  93.404;  19.071;   0.203;  -0.265;   4.660;   4.655;  -1.290;   4.478;   0.017;;;;;;;;;;;;;;;;;;
2005-10-30T00:05:30.723Z;0;6.9490e+01;0;     0.068;  5550.916;  75062.570; 0;  74857.039;  75062.570;  77683.938;  72133.016; 17;   4.660;  52.662; 175.144;; 182.841;  93.453;  19.073;   0.203;  -0.265;   4.660;   4.656;  -1.292;   4.478;   0.017;;;;;;;;;;;;;;;;;;
2005-10-30T00:05:38.723Z;0;6.9820e+01;0;     0.070;  5550.916;  75237.898; 0;  75032.852;  75237.898;  77859.625;  72308.711; 17;   4.661;  52.712; 175.192;; 182.890;  93.502;  19.075;   0.203;  -0.264;   4.661;   4.656;  -1.294;   4.477;   0.017;;;;;;;;;;;;;;;;;;
2005-10-30T00:05:46.723Z;0;6.9570e+01;0;     0.072;  5550.916;  75108.531; 0;  74903.133;  75108.531;  77729.992;  72179.078; 17;   4.661;  52.761; 175.241;; 182.939;  93.551;  19.076;   0.203;  -0.264;   4.661;   4.656;  -1.296;   4.477;   0.017;;;;;;;;;;;;;;;;;;
2005-10-30T00:05:54.723Z;0;6.9650e+01;0;     0.070;  5550.916;  75151.156; 0;  74945.875;  75151.156;  77772.703;  72221.789; 17;   4.661;  52.810; 175.289;; 182.988;  93.600;  19.078;   0.203;  -0.264;   4.661;   4.656;  -1.298;   4.477;   0.017;;;;;;;;;;;;;;;;;;
2005-10-30T00:06:02.723Z;0;6.9700e+01;0;     0.069;  5543.160;  75175.359; 0;  74970.711;  75175.359;  77793.508;  72250.352; 17;   4.661;  52.860; 175.338;; 183.037;  93.649;  19.080;   0.204;  -0.264;   4.661;   4.657;  -1.300;   4.476;   0.017;;;;;;;;;;;;;;;;;;
2005-10-30T00:06:10.723Z;0;6.9620e+01;0;     0.072;  5543.160;  75131.492; 0;  74926.727;  75131.492;  77749.555;  72206.391; 17;   4.662;  52.909; 175.386;; 183.086;  93.698;  19.081;   0.204;  -0.264;   4.662;   4.657;  -1.302;   4.476;   0.017;;;;;;;;;;;;;;;;;;
2005-10-30T00:06:18.723Z;0;6.9490e+01;0;     0.072;  5543.160;  75061.898; 0;  74856.945;  75061.898;  77679.812;  72136.656; 17;   4.662;  52.959; 175.435;; 183.135;  93.747;  19.083;   0.204;  -0.264;   4.662;   4.657;  -1.304;   4.476;   0.017;;;;;;;;;;;;;;;;;;
2005-10-30T00:06:26.723Z;0;6.9460e+01;0;     0.073;  5543.160;  75044.148; 0;  74839.148;  75044.148;  77662.031;  72118.867; 17;   4.662;  53.008; 175.483;; 183.184;  93.796;  19.085;   0.204;  -0.263;   4.662;   4.657;  -1.307;   4.475;   0.017;;;;;;;;;;;;;;;;;;
2005-10-30T00:06:34.723Z;0;6.9380e+01;0;     0.069;  5543.160;  75001.938; 0;  74796.820;  75001.938;  77619.734;  72076.570; 17;   4.662;  53.058; 175.532;; 183.233;  93.845;  19.086;   0.204;  -0.263;   4.662;   4.657;  -1.309;   4.475;   0.017;;;;;;;;;;;;;;;;;;
2005-10-30T00:06:42.723Z;0;6.9530e+01;0;     0.069;  5543.160;  75086.062; 0;  74881.172;  75086.062;  77704.031;  72160.867; 17;   4.662;  53.107; 175.580;; 183.283;  93.894;  19.088;   0.204;  -0.263;   4.663;   4.658;  -1.311;   4.475;   0.017;;;;;;;;;;;;;;;;;;
2005-10-30T00:06:50.723Z;0;6.9380e+01;0;     0.066;  5543.160;  75001.156; 0;  74796.031;  75001.156;  77618.945;  72075.789; 17;   4.663;  53.157; 175.629;; 183.332;  93.942;  19.090;   0.205;  -0.263;   4.663;   4.658;  -1.313;   4.474;   0.017;;;;;;;;;;;;;;;;;;
2005-10-30T00:06:58.723Z;0;6.9480e+01;0;     0.071;  5543.160;  75055.008; 0;  74850.031;  75055.008;  77672.906;  72129.750; 17;   4.663;  53.206; 175.677;; 183.381;  93.991;  19.092;   0.205;  -0.263;   4.663;   4.658;  -1.315;   4.474;   0.017;;;;;;;;;;;;;;;;;;
2005-10-30T00:07:06.723Z;0;6.9660e+01;0;     0.072;  5536.636;  75155.406; 0;  74951.188;  75155.406;  77770.617;  72233.977; 17;   4.663;  53.256; 175.726;; 183.430;  94.040;  19.093;   0.205;  -0.263;   4.663;   4.658;  -1.317;   4.473;   0.017;;;;;;;;;;;;;;;;;;
2005-10-30T00:07:14.723Z;0;6.9670e+01;0;     0.070;  5536.636;  75160.961; 0;  74956.758;  75160.961;  77776.180;  72239.547; 17;   4.663;  53.305; 175.774;; 183.479;  94.089;  19.095;   0.205;  -0.262;   4.663;   4.659;  -1.319;   4.473;   0.017;;;;;;;;;;;;;;;;;;
2005-10-30T00:07:22.722Z;0;6.9650e+01;0;     0.073;  5536.636;  75149.922; 0;  74945.688;  75149.922;  77765.117;  72228.484; 17;   4.664;  53.355; 175.823;; 183.528;  94.138;  19.097;   0.205;  -0.262;   4.664;   4.659;  -1.321;   4.473;   0.017;;;;;;;;;;;;;;;;;;
2005-10-30T00:07:30.722Z;0;6.9580e+01;0;     0.080;  5536.636;  75111.031; 0;  74906.695;  75111.031;  77726.148;  72189.516; 17;   4.664;  53.404; 175.871;; 183.577;  94.186;  19.098;   0.205;  -0.262;   4.664;   4.659;  -1.323;   4.472;   0.017;;;;;;;;;;;;;;;;;;
2005-10-30T00:07:38.722Z;0;6.9550e+01;0;     0.079;  5536.636;  75092.102; 0;  74887.711;  75092.102;  77707.180;  72170.547; 17;   4.664;  53.454; 175.920;; 183.626;  94.235;  19.100;   0.205;  -0.262;   4.664;   4.659;  -1.325;   4.472;   0.017;;;;;;;;;;;;;;;;;;
2005-10-30T00:07:46.722Z;0;6.9680e+01;0;     0.077;  5536.636;  75163.234; 0;  74959.039;  75163.234;  77778.461;  72241.820; 17;   4.664;  53.503; 175.968;; 183.675;  94.284;  19.102;   0.206;  -0.262;   4.664;   4.660;  -1.327;   4.472;   0.017;;;;;;;;;;;;;;;;;;
2005-10-30T00:07:54.722Z;0;6.9420e+01;0;     0.082;  5536.636;  75025.633; 0;  74821.062;  75025.633;  77640.578;  72103.938; 17;   4.665;  53.553; 176.017;; 183.724;  94.333;  19.104;   0.206;  -0.262;   4.665;   4.660;  -1.329;   4.471;   0.017;;;;;;;;;;;;;;;;;;
2005-10-30T00:08:02.722Z;0;7.0100e+01;0;     0.084;  5526.836;  75386.148; 0;  75183.281;  75386.148;  77997.469;  72470.633; 17;   4.665;  53.602; 176.065;; 183.774;  94.381;  19.105;   0.206;  -0.261;   4.665;   4.660;  -1.331;   4.471;   0.017;;;;;;;;;;;;;;;;;;
2005-10-30T00:08:10.722Z;0;6.9920e+01;0;     0.085;  5526.836;  75292.430; 0;  75089.305;  75292.430;  77903.555;  72376.719; 17;   4.665;  53.652; 176.114;; 183.823;  94.430;  19.107;   0.206;  -0.261;   4.665;   4.660;  -1.333;   4.471;   0.017;;;;;;;;;;;;;;;;;;
2005-10-30T00:08:18.722Z;0;7.0150e+01;0;     0.089;  5526.836;  75417.617; 0;  75214.836;  75417.617;  78029.000;  72502.164; 17;   4.665;  53.701; 176.163;; 183.872;  94.479;  19.109;   0.206;  -0.261;   4.665;   4.660;  -1.335;   4.470;   0.017;;;;;;;;;;;;;;;;;;
2005-10-30T00:08:26.722Z;0;7.0850e+01;0;     0.093;  5526.836;  75787.453; 0;  75585.664;  75787.453;  78399.578;  72872.742; 17;   4.665;  53.751; 176.211;; 183.921;  94.527;  19.110;   0.206;  -0.261;   4.666;   4.661;  -1.337;   4.470;   0.017;;;;;;;;;;;;;;;;;;
2005-10-30T00:08:34.722Z;0;7.0300e+01;0;     0.092;  5526.836;  75497.406; 0;  75294.836;  75497.406;  78108.945;  72582.109; 17;   4.666;  53.800; 176.260;; 183.970;  94.576;  19.112;   0.206;  -0.261;   4.666;   4.661;  -1.340;   4.469;   0.017;;;;;;;;;;;;;;;;;;
2005-10-30T00:08:42.722Z;0;7.0680e+01;0;     0.085;  5526.836;  75698.211; 0;  75496.180;  75698.211;  78310.156;  72783.320; 17;   4.666;  53.850; 176.308;; 184.019;  94.625;  19.114;   0.207;  -0.261;   4.666;   4.661;  -1.342;   4.469;   0.017;;;;;;;;;;;;;;;;;;
2005-10-30T00:08:50.722Z;0;7.1370e+01;0;     0.091;  5526.836;  76067.312; 0;  75866.266;  76067.312;  78679.992;  73153.156; 17;   4.666;  53.899; 176.357;; 184.068;  94.673;  19.115;   0.207;  -0.260;   4.666;   4.661;  -1.344;   4.469;   0.017;;;;;;;;;;;;;;;;;;
2005-10-30T00:08:58.722Z;0;7.0600e+01;0;     0.092;  5526.836;  75653.711; 0;  75451.562;  75653.711;  78265.570;  72738.734; 17;   4.666;  53.949; 176.405;; 184.117;  94.722;  19.117;   0.207;  -0.260;   4.666;   4.662;  -1.346;   4.468;   0.017;;;;;;;;;;;;;;;;;;
2005-10-30T00:09:06.722Z;0;7.0740e+01;0;     0.083;  5520.592;  75728.961; 0;  75527.469;  75728.961;  78338.188;  72817.594; 17;   4.667;  53.998; 176.454;; 184.166;  94.771;  19.119;   0.207;  -0.260;   4.667;   4.662;  -1.348;   4.468;   0.017;;;;;;;;;;;;;;;;;;
2005-10-30T00:09:14.722Z;0;7.0710e+01;0;     0.085;  5520.592;  75713.586; 0;  75512.055;  75713.586;  78322.781;  72802.188; 17;   4.667;  54.048; 176.502;; 184.216;  94.819;  19.121;   0.207;  -0.260;   4.667;   4.662;  -1.350;   4.468;   0.017;;;;;;;;;;;;;;;;;;
2005-10-30T00:09:22.722Z;0;7.0140e+01;0;     0.085;  5520.592;  75408.922; 0;  75206.570;  75408.922;  78017.508;  72496.914; 17;   4.667;  54.097; 176.551;; 184.265;  94.868;  19.122;   0.207;  -0.260;   4.667;   4.662;  -1.352;   4.467;   0.017;;;;;;;;;;;;;;;;;;
2005-10-30T00:09:30.722Z;0;7.0570e+01;0;     0.085;  5520.592;  75637.922; 0;  75436.188;  75637.922;  78246.969;  72726.375; 17;   4.667;  54.147; 176.600;; 184.314;  94.916;  19.124;   0.207;  -0.259;   4.667;   4.663;  -1.354;   4.467;   0.017;;;;;;;;;;;;;;;;;;
2005-10-30T00:09:38.722Z;0;7.0930e+01;0;     0.089;  5520.592;  75833.227; 0;  75632.016;  75833.227;  78442.664;  72922.070; 17;   4.668;  54.197; 176.648;; 184.363;  94.965;  19.126;   0.208;  -0.259;   4.668;   4.663;  -1.356;   4.466;   0.017;;;;;;;;;;;;;;;;;;
2005-10-30T00:09:54.721Z;0;7.0070e+01;0;     0.079;  5520.592;  75370.516; 0;  75168.062;  75370.516;  77979.023;  72458.430; 17;   4.668;  54.296; 176.745;; 184.461;  95.062;  19.129;   0.208;  -0.259;   4.668;   4.663;  -1.360;   4.466;   0.017;;;;;;;;;;;;;;;;;;
2005-10-30T00:10:02.721Z;0;7.0810e+01;0;     0.090;  5513.984;  75768.188; 0;  75567.281;  75768.188;  78374.555;  72860.570; 17;   4.668;  54.345; 176.794;; 184.510;  95.111;  19.131;   0.208;  -0.259;   4.668;   4.664;  -1.362;   4.465;   0.017;;;;;;;;;;;;;;;;;;
2005-10-30T00:10:10.721Z;0;7.0620e+01;0;     0.077;  5513.984;  75662.617; 0;  75461.430;  75662.617;  78268.773;  72754.789; 17;   4.669;  54.395; 176.842;; 184.559;  95.161;  19.132;   0.208;  -0.259;   4.669;   4.664;  -1.364;   4.465;   0.017;;;;;;;;;;;;;;;;;;
2005-10-30T00:10:18.721Z;0;7.0150e+01;0;     0.073;  5513.984;  75412.172; 0;  75210.312;  75412.172;  78017.820;  72503.836; 17;   4.669;  54.444; 176.891;; 184.607;  95.210;  19.134;   0.208;  -0.258;   4.669;   4.664;  -1.366;   4.465;   0.017;;;;;;;;;;;;;;;;;;
2005-10-30T00:10:26.721Z;0;7.0350e+01;0;     0.078;  5513.984;  75519.242; 0;  75317.672;  75519.242;  78125.109;  72611.125; 17;   4.669;  54.494; 176.940;; 184.656;  95.260;  19.136;   0.209;  -0.258;   4.669;   4.664;  -1.368;   4.464;   0.017;;;;;;;;;;;;;;;;;;
2005-10-30T00:10:34.721Z;0;7.0720e+01;0;     0.075;  5513.984;  75720.602; 0;  75519.570;  75720.602;  78326.867;  72812.883; 17;   4.669;  54.543; 176.988;; 184.704;  95.310;  19.138;   0.209;  -0.258;   4.669;   4.665;  -1.370;   4.464;   0.017;;;;;;;;;;;;;;;;;;
2005-10-30T00:10:42.721Z;0;7.0020e+01;0;     0.071;  5513.984;  75347.406; 0;  75145.375;  75347.406;  77952.930;  72438.945; 17;   4.670;  54.593; 177.037;; 184.752;  95.360;  19.139;   0.209;  -0.258;   4.670;   4.665;  -1.372;   4.463;   0.017;;;;;;;;;;;;;;;;;;
2005-10-30T00:10:50.721Z;0;6.9580e+01;0;     0.090;  5513.984;  75109.469; 0;  74906.797;  75109.469;  77714.508;  72200.523; 17;   4.670;  54.642; 177.085;; 184.801;  95.410;  19.141;   0.209;  -0.258;   4.670;   4.665;  -1.375;   4.463;   0.017;;;;;;;;;;;;;;;;;;
2005-10-30T00:10:58.721Z;0;6.9320e+01;0;     0.092;  5513.984;  74971.383; 0;  74768.336;  74971.383;  77576.141;  72062.156; 17;   4.670;  54.692; 177.134;; 184.849;  95.460;  19.143;   0.209;  -0.258;   4.670;   4.665;  -1.377;   4.463;   0.017;;;;;;;;;;;;;;;;;;
2005-10-30T00:11:06.721Z;0;6.9480e+01;0;     0.071;  5507.740;  75055.938; 0;  74853.578;  75055.938;  77658.094;  72150.352; 17;   4.670;  54.742; 177.183;; 184.898;  95.510;  19.144;   0.209;  -0.257;   4.670;   4.666;  -1.379;   4.462;   0.017;;;;;;;;;;;;;;;;;;
2005-10-30T00:11:14.721Z;0;6.9920e+01;0;     0.069;  5507.740;  75291.586; 0;  75089.867;  75291.586;  77894.219;  72386.477; 17;   4.671;  54.791; 177.231;; 184.946;  95.560;  19.146;   0.209;  -0.257;   4.671;   4.666;  -1.381;   4.462;   0.017;;;;;;;;;;;;;;;;;;
2005-10-30T00:11:22.721Z;0;7.0030e+01;0;     0.070;  5507.740;  75348.227; 0;  75146.656;  75348.227;  77950.969;  72443.227; 17;   4.671;  54.841; 177.280;; 184.994;  95.610;  19.148;   0.210;  -0.257;   4.671;   4.666;  -1.383;   4.462;   0.017;;;;;;;;;;;;;;;;;;
2005-10-30T00:11:30.721Z;0;7.0240e+01;0;     0.070;  5507.740;  75462.688; 0;  75261.422;  75462.688;  78065.664;  72557.922; 17;   4.671;  54.890; 177.328;; 185.043;  95.660;  19.149;   0.210;  -0.257;   4.671;   4.666;  -1.385;   4.461;   0.017;;;;;;;;;;;;;;;;;;
2005-10-30T00:11:38.721Z;0;6.9990e+01;0;     0.070;  5507.740;  75325.805; 0;  75124.172;  75325.805;  77928.500;  72420.766; 17;   4.671;  54.940; 177.377;; 185.091;  95.710;  19.151;   0.210;  -0.257;   4.671;   4.666;  -1.387;   4.461;   0.017;;;;;;;;;;;;;;;;;;
2005-10-30T00:11:46.721Z;0;7.0120e+01;0;     0.070;  5507.740;  75399.586; 0;  75198.156;  75399.586;  78002.430;  72494.695; 17;   4.672;  54.989; 177.426;; 185.139;  95.760;  19.153;   0.210;  -0.257;   4.672;   4.667;  -1.389;   4.460;   0.017;;;;;;;;;;;;;;;;;;
2005-10-30T00:11:54.721Z;0;6.9980e+01;0;     0.070;  5507.740;  75325.594; 0;  75123.961;  75325.594;  77928.289;  72420.555; 17;   4.672;  55.039; 177.474;; 185.188;  95.810;  19.155;   0.210;  -0.256;   4.672;   4.667;  -1.391;   4.460;   0.017;;;;;;;;;;;;;;;;;;
2005-10-30T00:12:02.721Z;0;6.9180e+01;0;     0.099;  5496.764;  74891.367; 0;  74689.375;  74891.367;  77488.305;  71991.539; 17;   4.672;  55.089; 177.523;; 185.236;  95.860;  19.156;   0.210;  -0.256;   4.672;   4.667;  -1.393;   4.460;   0.017;;;;;;;;;;;;;;;;;;